KUIPER-00039 (64500 NORAD) Tracking and Keplerian Element Data

This shows tracking and keplerian element data for the satellite.

Feedback or suggestion? Click here.




ElementValue
Catalog64500
NameKUIPER-00039
Epoch Orbit2825
Epoch Day353.87756727
Epoch Year2025
RAAN226.0126
Inclination51.9006
Eccentricity0.0011418
Argument of Perigee27.3378
Mean Anonmoly332.8183
Mean Motion14.79937662
Decay Rate2.37E-05
L11 64500U 25134A 25353.87756727 .00002370 00000+0 33984-3 0 9998
L22 64500 51.9006 226.0126 0011418 27.3378 332.8183 14.79937662 28251



Live tracking and technical data element details for KUIPER-00039 (NORAD 64500). KUIPER-00039 can be tracked NOW for your location showing map with azimuth and elevation plus other details from your city location.







IsCatalogInMostPopularTable: catalog: 64500, numindb: 5
Update: records affected: 1



GetName: 64500 KUIPER-00039

Hit Count: updated at: Tue, 21 Apr 2026 19:17:35 GMT